Weather History for MRLB - April, 2014

Change the Weather History Date:

Wednesday, April 23, 2014

  Actual Average Record
Temperature  
Mean Temperature 86 °F -  
Max Temperature 98 °F 91 °F 98 °F (2006)
Min Temperature 75 °F 76 °F 69 °F (2013)
Cooling Degree Days 22    
Growing Degree Days 36 (Base 50)    
Moisture  
Dew Point 62 °F    
Average Humidity 39    
Maximum Humidity 61    
Minimum Humidity 18    
Precipitation  
Precipitation 0.00 in - - ()
Sea Level Pressure  
Sea Level Pressure 29.80 in    
Wind  
Wind Speed 8 mph ()    
Max Wind Speed 16 mph    
Max Gust Speed -    
Visibility 8.6 miles    
Events      
Averages and records for this station are not official NWS values.
T = Trace of Precipitation, MM = Missing Value Source: Averaged Metar Reports

Daily Weather History Graph

Daily Weather History Graph

Search for Another Location

Airport or City:

Trip Planner

Search our weather history database for the weather conditions in past years. The results will help you decide how hot, cold, wet, or windy it might be!

Date:

Astronomy

Apr. 23, 2014 Rise Set
Actual Time 5:27 AM CST 5:53 PM CST
Civil Twilight 5:05 AM CST 6:15 PM CST
Nautical Twilight 4:40 AM CST 6:40 PM CST
Astronomical Twilight 4:15 AM CST 7:05 PM CST
Moon 12:53 AM CST (4/23) 1:02 PM CST (4/23)
Length of Visible Light 13h 09m
Length of Day
12h 26m
Waning Crescent, 34% of the Moon is Illuminated
Apr 23
Waning Crescent
Apr 29
New
May 6
First Quarter
May 14
Full
May 21
Last Quarter

Hourly Weather History & Observations

Time (CST) Temp. Heat Index Dew Point Humidity Pressure Visibility Wind Dir Wind Speed Gust Speed Precip Events Conditions
6:00 AM 77 °F - 63 °F 52% 29.86 in 12 mi North 4.6 mph - -   Overcast
6:00 AM 77.0 °F - 62.6 °F 61% 29.83 in - North 4.6 mph - N/A   Clear
7:00 AM 80.6 °F 82.3 °F 64.4 °F 58% 29.85 in - NNW 3.5 mph - N/A   Clear
8:00 AM 84.2 °F 85.6 °F 64.4 °F 51% 29.88 in - South 2.3 mph - N/A   Clear
9:00 AM 89 °F - 63 °F 32% 29.89 in 12 mi NNE 6.9 mph - -   Overcast
9:00 AM 89.6 °F 90.1 °F 62.6 °F 40% 29.86 in - NNE 6.9 mph - N/A   Clear
10:00 AM 91.4 °F 90.7 °F 59.0 °F 34% 29.85 in - East 12.7 mph - N/A   Clear
11:00 AM 93.2 °F 92.6 °F 59.0 °F 32% 29.83 in - East 12.7 mph - N/A   Clear
12:00 PM 95 °F - 56 °F 18% 29.83 in 12 mi East 15.0 mph - -   Overcast
12:00 PM 95.0 °F 93.0 °F 55.4 °F 26% 29.81 in - East 15.0 mph - N/A   Clear
1:00 PM 98.6 °F 97.6 °F 57.2 °F 25% 29.76 in - East 16.1 mph - N/A   Clear
2:00 PM 96.8 °F 97.1 °F 60.8 °F 30% 29.74 in 6.2 mi East 15.0 mph - N/A   Mostly Cloudy
3:00 PM 96 °F - 64 °F 25% 29.73 in 12 mi East 13.8 mph - -   Overcast
3:00 PM 95.0 °F 97.0 °F 64.4 °F 36% 29.73 in 6.2 mi East 13.8 mph - N/A   Mostly Cloudy
4:00 PM 93.2 °F 94.9 °F 64.4 °F 38% 29.73 in 6.2 mi ENE 16.1 mph - N/A   Mostly Cloudy
5:00 PM 91.4 °F 92.1 °F 62.6 °F 38% 29.74 in 6.2 mi ENE 15.0 mph - N/A   Mostly Cloudy
6:00 PM 88 °F - 64 °F 34% 29.79 in 12 mi East 12.7 mph - -   Overcast
6:00 PM 87.8 °F 89.4 °F 64.4 °F 46% 29.77 in 6.2 mi East 12.7 mph - N/A   Mostly Cloudy
7:00 PM 86.0 °F 86.6 °F 62.6 °F 45% 29.80 in 6.2 mi East 8.1 mph - N/A   Mostly Cloudy
8:00 PM 84.2 °F 85.6 °F 64.4 °F 51% 29.81 in 6.2 mi East 6.9 mph - N/A   Mostly Cloudy